Location: Warwick
(41.7000°N, 71.4170°W)
Time: 09:09:34
(UTC-05:00)

Hubble Space Telescope - Pass Details

Date: 24 October 2017
Orbit: 537 x 541 km, 28.5° (Epoch: 20 November)

Event Time Altitude Azimuth Distance (km) Brightness Sun altitude
Rises 19:45:49 0° 236° (SW) 2,671 5.1 -22.2°
Reaches altitude 10° 19:49:10 10° 208° (SSW) 1,780 3.7 -22.8°
Enters shadow 19:50:50 13° 184° (S) 1,605 3.2 -23.1°
